Location: ??? ???
(33.4974°N, 35.4618°E)
Time: 18:14:14
(UTC+00:00)

Cosmos 2297 Rocket - Pass Details

Date: 29 October 2020
Orbit: 838 x 845 km, 71.0° (Epoch: 30 November)

Event Time Altitude Azimuth Distance (km) Brightness Sun altitude
Rises 15:52:45 0° 340° (NNW) 3,407 5.5 -13.9°
Reaches altitude 10° 15:55:12 10° 341° (NNW) 2,468 4.8 -14.4°
Maximum altitude 16:00:53 84° 68° (ENE) 853 2.1 -15.6°
Drops below altitude 10° 16:06:32 10° 158° (SSE) 2,452 4.4 -16.7°
Sets 16:08:57 0° 159° (SSE) 3,382 5.2 -17.3°
